Voltar ao catálogo

DELTA 1 DEB

AtivoSSO
NORAD 10845·DEBRIS·🇺🇸 United States

Lançado Jul 29, 1976 de Vandenberg Space Force Base

Loading…

Próximas Passagens (próximas 24 horas)

TLE

AtualizadoSource: Space-Track

Época: Sep 14, 2026, 13:20 UTC

1 10845U 76077CR  26257.55566747 -.00000043  00000-0 -12538-4 0  9994
2 10845 102.3447 354.8877 0175623  56.0340 319.7284 12.10182561214272

Acompanhe DELTA 1 DEB em tempo real com AllMySat

Download on the App Store